User: anonymous   Login
Location: Spring Creek
(38.2870°N, 100.2160°W)
Time: 07:54:53
(UTC+00:00)
Language:

Meteor 2-15 - Orbit

View from above orbital plane
View from above orbital plane
View from above satellite
View from above satellite

Ground track
Ground track

The orbit data is extracted from the following two-line orbital elements,

1 17290U 87001A   21334.76620276  .00000028  00000-0  11942-4 0  9995
2 17290  82.4666 350.2425 0013823 144.7328 215.4750 13.85062864764105
Epoch (UTC): 30 November 2021 18:23:19
Eccentricity: 0.0013823
inclination: 82.4666°
perigee height: 936 km
apogee height: 956 km
right ascension of ascending node: 350.2425°
argument of perigee: 144.7328°
revolutions per day: 13.85062864
mean anomaly at epoch: 215.4750°
orbit number at epoch: 76410

The dashed part of the orbit path shows where the satellite is in the earth's shadow,  

DLR